| time (UTC) | temp F | wind direction | speed MPH | gust MPH | rain 1hr in | rain 24hr in | rain mn in | humidity % | barometer mb |
| 20260510162434 | 56 | 327 | 0.0 | 7.0 | 0.00 | 0.31 | 0.00 | 54 | 1015.5 |
| 20260510161434 | 56 | 339 | 0.0 | 2.0 | 0.00 | 0.31 | 0.00 | 54 | 1015.3 |
| 20260510160454 | 56 | 286 | 1.0 | 5.0 | 0.00 | 0.31 | 0.00 | 54 | 1015.3 |
| 20260510155434 | 55 | 0.0 | 0.0 | 0.00 | 0.31 | 0.00 | 57 | 1015.2 | |
| 20260510154434 | 55 | 321 | 0.0 | 4.0 | 0.00 | 0.31 | 0.00 | 60 | 1015.8 |
| 20260510153434 | 55 | 339 | 0.0 | 5.0 | 0.00 | 0.31 | 0.00 | 62 | 1015.3 |
| 20260510152435 | 55 | 318 | 0.0 | 2.0 | 0.00 | 0.31 | 0.00 | 62 | 1015.5 |
| 20260510151434 | 54 | 344 | 0.0 | 8.0 | 0.00 | 0.31 | 0.00 | 63 | 1015.1 |
| 20260510150434 | 53 | 0.0 | 0.0 | 0.00 | 0.31 | 0.00 | 68 | 1014.9 | |
| 20260510145434 | 54 | 0.0 | 0.0 | 0.00 | 0.31 | 0.00 | 70 | 1014.8 | |
| 20260510144434 | 53 | 0.0 | 0.0 | 0.00 | 0.31 | 0.00 | 69 | 1014.7 | |
| 20260510143454 | 54 | 329 | 0.0 | 4.0 | 0.00 | 0.31 | 0.00 | 68 | 1014.4 |
| 20260510142434 | 53 | 0.0 | 0.0 | 0.00 | 0.31 | 0.00 | 69 | 1014.4 | |
| 20260510141434 | 53 | 0.0 | 0.0 | 0.00 | 0.31 | 0.00 | 71 | 1014.1 | |
| 20260510140434 | 52 | 299 | 0.0 | 2.0 | 0.00 | 0.31 | 0.00 | 70 | 1014.1 |
| 20260510135434 | 51 | 0.0 | 0.0 | 0.00 | 0.31 | 0.00 | 72 | 1014.1 | |
| 20260510134434 | 51 | 324 | 0.0 | 1.0 | 0.00 | 0.31 | 0.00 | 72 | 1014.1 |
| 20260510133434 | 51 | 0.0 | 0.0 | 0.00 | 0.31 | 0.00 | 74 | 1013.9 | |
| 20260510132434 | 50 | 0.0 | 0.0 | 0.00 | 0.31 | 0.00 | 74 | 1014.1 | |
| 20260510131434 | 50 | 0.0 | 0.0 | 0.00 | 0.31 | 0.00 | 76 | 1013.9 | |
| 20260510130434 | 50 | 0.0 | 0.0 | 0.00 | 0.31 | 0.00 | 79 | 1014.1 | |
| 20260510125434 | 49 | 0.0 | 0.0 | 0.00 | 0.31 | 0.00 | 80 | 1014.0 | |
| 20260510124434 | 49 | 0.0 | 0.0 | 0.00 | 0.31 | 0.00 | 81 | 1014.0 | |
| 20260510123434 | 49 | 0.0 | 0.0 | 0.00 | 0.31 | 0.00 | 81 | 1013.6 | |
| 20260510122454 | 49 | 0.0 | 0.0 | 0.00 | 0.31 | 0.00 | 85 | 1013.9 | |
| 20260510121434 | 49 | 0.0 | 0.0 | 0.00 | 0.31 | 0.00 | 88 | 1014.1 | |
| 20260510120437 | 49 | 0.0 | 0.0 | 0.00 | 0.31 | 0.00 | 89 | 1013.7 | |
| 20260510115434 | 49 | 0.0 | 0.0 | 0.00 | 0.31 | 0.00 | 90 | 1013.3 | |
| 20260510114434 | 48 | 0.0 | 0.0 | 0.00 | 0.31 | 0.00 | 90 | 1013.3 | |
| 20260510113434 | 48 | 0.0 | 0.0 | 0.00 | 0.31 | 0.00 | 93 | 1012.5 | |
| 20260510112514 | 48 | 0.0 | 0.0 | 0.00 | 0.31 | 0.00 | 94 | 1012.5 | |
| 20260510111435 | 47 | 0.0 | 0.0 | 0.00 | 0.31 | 0.00 | 95 | 1012.8 | |
| 20260510110434 | 47 | 0.0 | 0.0 | 0.00 | 0.31 | 0.00 | 98 | 1012.1 | |
| 20260510105434 | 47 | 0.0 | 0.0 | 0.00 | 0.31 | 0.00 | 99 | 1010.7 | |
| 20260510104434 | 47 | 0.0 | 0.0 | 0.00 | 0.31 | 0.00 | 99 | 1011.5 | |
| 20260510103455 | 48 | 0.0 | 0.0 | 0.00 | 0.31 | 0.00 | 99 | 1010.1 | |
| 20260510102434 | 48 | 0.0 | 0.0 | 0.00 | 0.31 | 0.00 | 99 | 1011.1 | |
| 20260510101435 | 48 | 0.0 | 0.0 | 0.00 | 0.31 | 0.00 | 99 | 1009.9 | |
| 20260510100434 | 49 | 0.0 | 0.0 | 0.00 | 0.31 | 0.00 | 99 | 1011.2 | |
| 20260510095435 | 50 | 0.0 | 0.0 | 0.00 | 0.31 | 0.00 | 99 | 1009.4 | |
| 20260510094434 | 50 | 0.0 | 0.0 | 0.00 | 0.31 | 0.00 | 99 | 1010.4 | |
| 20260510093435 | 50 | 0.0 | 0.0 | 0.00 | 0.31 | 0.00 | 99 | 1008.9 | |
| 20260510092434 | 50 | 0.0 | 0.0 | 0.00 | 0.31 | 0.00 | 99 | 1010.0 | |
| 20260510091435 | 50 | 0.0 | 0.0 | 0.00 | 0.31 | 0.00 | 99 | 1008.9 | |
| 20260510090434 | 49 | 0.0 | 0.0 | 0.00 | 0.31 | 0.00 | 99 | 1009.6 | |
| 20260510085435 | 49 | 0.0 | 0.0 | 0.00 | 0.31 | 0.00 | 99 | 1008.6 | |
| 20260510084434 | 49 | 0.0 | 0.0 | 0.00 | 0.31 | 0.00 | 99 | 1009.6 | |
| 20260510083435 | 48 | 0.0 | 0.0 | 0.00 | 0.31 | 0.00 | 99 | 1008.4 | |
| 20260510082434 | 48 | 0.0 | 0.0 | 0.00 | 0.31 | 0.00 | 99 | 1009.7 | |
| 20260510081455 | 47 | 0.0 | 0.0 | 0.00 | 0.31 | 0.00 | 99 | 1008.1 | |
| 20260510080437 | 47 | 0.0 | 0.0 | 0.00 | 0.31 | 0.00 | 99 | 1008.8 | |
| 20260510075435 | 47 | 0.0 | 0.0 | 0.00 | 0.31 | 0.00 | 99 | 1007.7 | |
| 20260510074454 | 47 | 0.0 | 0.0 | 0.00 | 0.31 | 0.00 | 99 | 1008.8 | |
| 20260510073435 | 46 | 0.0 | 0.0 | 0.00 | 0.31 | 0.00 | 99 | 1007.7 | |
| 20260510072454 | 46 | 0.0 | 0.0 | 0.00 | 0.31 | 0.00 | 99 | 1009.0 | |
| 20260510071435 | 46 | 0.0 | 0.0 | 0.00 | 0.31 | 0.00 | 99 | 1008.8 | |
| 20260510070434 | 46 | 0.0 | 0.0 | 0.00 | 0.31 | 0.00 | 99 | 1008.7 | |
| 20260510065435 | 47 | 0.0 | 0.0 | 0.00 | 0.31 | 0.00 | 99 | 1007.2 | |
| 20260510064434 | 47 | 0.0 | 0.0 | 0.00 | 0.31 | 0.00 | 99 | 1008.4 | |
| 20260510063437 | 47 | 0.0 | 0.0 | 0.00 | 0.31 | 0.00 | 99 | 1008.7 | |
| 20260510062437 | 47 | 0.0 | 0.0 | 0.00 | 0.31 | 0.00 | 99 | 1009.3 | |
| 20260510061435 | 47 | 0.0 | 0.0 | 0.00 | 0.31 | 0.00 | 99 | 1007.2 | |
| 20260510060514 | 47 | 0.0 | 0.0 | 0.00 | 0.31 | 0.00 | 99 | 1008.6 | |
| 20260510055456 | 48 | 0.0 | 0.0 | 0.00 | 0.31 | 0.00 | 99 | 1007.8 | |
| 20260510054434 | 48 | 0.0 | 0.0 | 0.00 | 0.31 | 0.00 | 99 | 1008.7 | |
| 20260510053435 | 49 | 0.0 | 0.0 | 0.00 | 0.31 | 0.00 | 99 | 1007.8 | |
| 20260510052517 | 49 | 0.0 | 0.0 | 0.00 | 0.31 | 0.00 | 99 | 1009.3 | |
| 20260510051435 | 50 | 0.0 | 0.0 | 0.00 | 0.31 | 0.00 | 99 | 1007.5 | |
| 20260510050434 | 50 | 0.0 | 0.0 | 0.00 | 0.31 | 0.00 | 99 | 1008.5 | |
| 20260510045434 | 51 | 0.0 | 0.0 | 0.00 | 0.31 | 0.00 | 99 | 1007.3 | |
| 20260510044434 | 51 | 0.0 | 0.0 | 0.02 | 0.31 | 0.00 | 99 | 1008.2 | |
| 20260510043435 | 51 | 0.0 | 0.0 | 0.03 | 0.31 | 0.00 | 99 | 1007.6 | |
| 20260510042437 | 52 | 0.0 | 0.0 | 0.05 | 0.31 | 0.00 | 99 | 1007.9 | |
| 20260510041435 | 52 | 0.0 | 0.0 | 0.08 | 0.31 | 0.00 | 99 | 1008.0 | |
| 20260510040434 | 52 | 0.0 | 0.0 | 0.10 | 0.31 | 0.00 | 99 | 1007.9 | |
| 20260510035435 | 52 | 0.0 | 0.0 | 0.17 | 0.31 | 0.31 | 99 | 1008.3 | |
| 20260510034433 | 52 | 0.0 | 0.0 | 0.18 | 0.29 | 0.29 | 99 | 1007.9 | |
| 20260510033435 | 52 | 281 | 0.0 | 4.0 | 0.21 | 0.28 | 0.28 | 99 | 1007.8 |
| 20260510032433 | 52 | 0.0 | 0.0 | 0.22 | 0.26 | 0.26 | 99 | 1008.1 | |
| 20260510031435 | 52 | 0.0 | 0.0 | 0.23 | 0.23 | 0.23 | 99 | 1007.9 | |
| 20260510030434 | 52 | 0.0 | 0.0 | 0.21 | 0.21 | 0.21 | 99 | 1008.7 | |
| 20260510025435 | 52 | 0.0 | 0.0 | 0.14 | 0.14 | 0.14 | 99 | 1008.6 | |
| 20260510024433 | 53 | 0.0 | 0.0 | 0.11 | 0.11 | 0.11 | 98 | 1009.4 | |
| 20260510023435 | 53 | 282 | 0.0 | 4.0 | 0.06 | 0.06 | 0.06 | 96 | 1009.4 |
| 20260510022437 | 56 | 0.0 | 0.0 | 0.03 | 0.03 | 0.03 | 92 | 1010.1 | |
| 20260510021435 | 58 | 0.0 | 0.0 | 0.00 | 0.00 | 0.00 | 86 | 1006.9 | |
| 20260510020434 | 57 | 0.0 | 0.0 | 0.00 | 0.00 | 0.00 | 86 | 1006.8 | |
| 20260510015435 | 57 | 0.0 | 0.0 | 0.00 | 0.00 | 0.00 | 86 | 1006.4 | |
| 20260510014453 | 57 | 0.0 | 0.0 | 0.00 | 0.00 | 0.00 | 86 | 1006.7 | |
| 20260510013435 | 57 | 0.0 | 0.0 | 0.00 | 0.00 | 0.00 | 86 | 1006.0 | |
| 20260510012453 | 57 | 0.0 | 0.0 | 0.00 | 0.00 | 0.00 | 86 | 1006.4 | |
| 20260510011435 | 57 | 0.0 | 0.0 | 0.00 | 0.00 | 0.00 | 86 | 1006.0 | |
| 20260510010433 | 57 | 0.0 | 0.0 | 0.00 | 0.00 | 0.00 | 85 | 1006.1 | |
| 20260510005435 | 57 | 0.0 | 0.0 | 0.00 | 0.00 | 0.00 | 85 | 1005.7 | |
| 20260510004513 | 57 | 0.0 | 0.0 | 0.00 | 0.00 | 0.00 | 85 | 1006.0 | |
| 20260510003435 | 57 | 0.0 | 0.0 | 0.00 | 0.00 | 0.00 | 84 | 1005.8 | |
| 20260510002433 | 58 | 0.0 | 0.0 | 0.00 | 0.00 | 0.00 | 83 | 1005.8 | |
| 20260510001455 | 58 | 0.0 | 0.0 | 0.00 | 0.00 | 0.00 | 82 | 1005.7 | |
| 20260510000433 | 59 | 0.0 | 0.0 | 0.00 | 0.00 | 0.00 | 81 | 1005.9 | |
| 20260509235455 | 59 | 0.0 | 0.0 | 0.00 | 0.00 | 0.00 | 80 | 1005.7 | |
| 20260509234433 | 60 | 0.0 | 0.0 | 0.00 | 0.00 | 0.00 | 79 | 1005.8 | |
| 20260509233435 | 60 | 0.0 | 0.0 | 0.00 | 0.00 | 0.00 | 79 | 1005.6 | |
| 20260509232433 | 60 | 0.0 | 0.0 | 0.00 | 0.00 | 0.00 | 77 | 1005.9 | |
| 20260509231435 | 61 | 0.0 | 0.0 | 0.00 | 0.00 | 0.00 | 77 | 1005.5 | |
| 20260509230433 | 61 | 0.0 | 0.0 | 0.00 | 0.00 | 0.00 | 76 | 1005.6 | |
| 20260509225435 | 61 | 0.0 | 0.0 | 0.00 | 0.00 | 0.00 | 76 | 1005.5 | |
| 20260509224433 | 61 | 0.0 | 0.0 | 0.00 | 0.00 | 0.00 | 77 | 1005.7 | |
| 20260509223435 | 60 | 0.0 | 0.0 | 0.00 | 0.00 | 0.00 | 78 | 1005.8 | |
| 20260509222433 | 61 | 0.0 | 0.0 | 0.00 | 0.00 | 0.00 | 76 | 1005.8 | |
| 20260509221455 | 63 | 0.0 | 0.0 | 0.00 | 0.00 | 0.00 | 73 | 1005.5 | |
| 20260509220433 | 62 | 0.0 | 0.0 | 0.00 | 0.00 | 0.00 | 73 | 1005.8 | |
| 20260509215435 | 61 | 0.0 | 0.0 | 0.00 | 0.00 | 0.00 | 75 | 1005.6 | |
| 20260509214433 | 63 | 0.0 | 0.0 | 0.00 | 0.00 | 0.00 | 73 | 1005.7 | |
| 20260509213435 | 63 | 355 | 0.0 | 1.0 | 0.00 | 0.00 | 0.00 | 73 | 1005.8 |
| 20260509212453 | 62 | 0.0 | 0.0 | 0.00 | 0.00 | 0.00 | 74 | 1005.7 | |
| 20260509211435 | 64 | 0.0 | 0.0 | 0.00 | 0.00 | 0.00 | 72 | 1005.7 | |
| 20260509210433 | 64 | 0.0 | 0.0 | 0.00 | 0.00 | 0.00 | 71 | 1006.0 | |
| 20260509205437 | 65 | 145 | 0.0 | 8.0 | 0.00 | 0.00 | 0.00 | 70 | 1005.6 |
| 20260509204433 | 64 | 2 | 0.0 | 1.0 | 0.00 | 0.00 | 0.00 | 71 | 1006.0 |
| 20260509203435 | 64 | 284 | 0.0 | 8.0 | 0.00 | 0.00 | 0.00 | 72 | 1006.0 |
| 20260509202433 | 63 | 0.0 | 0.0 | 0.00 | 0.00 | 0.00 | 73 | 1006.1 | |
| 20260509201435 | 62 | 0.0 | 0.0 | 0.00 | 0.00 | 0.00 | 74 | 1006.0 | |
| 20260509200433 | 62 | 278 | 0.0 | 1.0 | 0.00 | 0.00 | 0.00 | 74 | 1006.3 |
| 20260509195435 | 63 | 0.0 | 0.0 | 0.00 | 0.00 | 0.00 | 72 | 1006.1 | |
| 20260509194433 | 63 | 250 | 0.0 | 1.0 | 0.00 | 0.00 | 0.00 | 72 | 1006.6 |
| 20260509193436 | 62 | 0.0 | 0.0 | 0.00 | 0.00 | 0.00 | 77 | 1006.6 | |
| 20260509192433 | 61 | 0.0 | 0.0 | 0.00 | 0.00 | 0.00 | 78 | 1006.9 | |
| 20260509191436 | 59 | 0.0 | 0.0 | 0.00 | 0.00 | 0.00 | 80 | 1007.0 | |
| 20260509190433 | 59 | 0.0 | 0.0 | 0.00 | 0.00 | 0.00 | 83 | 1007.2 | |
| 20260509185436 | 58 | 0.0 | 0.0 | 0.00 | 0.00 | 0.00 | 83 | 1007.5 | |
| 20260509184433 | 59 | 0.0 | 0.0 | 0.00 | 0.00 | 0.00 | 83 | 1007.5 | |
| 20260509183435 | 57 | 0.0 | 0.0 | 0.00 | 0.00 | 0.00 | 86 | 1007.6 | |
| 20260509182433 | 55 | 0.0 | 0.0 | 0.00 | 0.00 | 0.00 | 89 | 1008.0 | |
| 20260509181516 | 54 | 0.0 | 0.0 | 0.00 | 0.00 | 0.00 | 90 | 1007.8 | |
| 20260509180433 | 54 | 0.0 | 0.0 | 0.00 | 0.00 | 0.00 | 90 | 1008.0 | |
| 20260509175436 | 54 | 0.0 | 0.0 | 0.00 | 0.00 | 0.00 | 90 | 1007.8 | |
| 20260509174453 | 55 | 0.0 | 0.0 | 0.00 | 0.00 | 0.00 | 90 | 1008.2 | |
| 20260509173436 | 54 | 0.0 | 0.0 | 0.00 | 0.00 | 0.00 | 91 | 1007.7 | |
| 20260509172433 | 53 | 0.0 | 0.0 | 0.00 | 0.00 | 0.00 | 91 | 1008.0 | |
| 20260509171436 | 53 | 0.0 | 0.0 | 0.00 | 0.00 | 0.00 | 90 | 1008.2 | |
| 20260509170434 | 54 | 0.0 | 0.0 | 0.00 | 0.00 | 0.00 | 89 | 1008.4 | |
| 20260509165436 | 54 | 0.0 | 0.0 | 0.00 | 0.00 | 0.00 | 88 | 1008.2 | |
| 20260509164433 | 54 | 0.0 | 0.0 | 0.00 | 0.00 | 0.00 | 88 | 1008.7 | |
| 20260509163436 | 53 | 0.0 | 0.0 | 0.00 | 0.00 | 0.00 | 88 | 1008.6 |